Dewpoint
72 71 71 71 71 70 68 65 54 61 59 55 56 57 56 63 62 61 61 62 59 66 66 64 61 60 60 59 60 62 62 55 56 49 45 61 70 71 72 73 73 73 74 74 75 75 75 76 76 75 75 75 76 76 76 76 76 76 76 76 76 76 76 75 75 75 75 75 75 75 76 76 76 76 76 76 75 76 75 76 76 75 75 75 75 75 75 75 75 75 74 74 74 75 74 75 75
70 70 71 71 69 68 64 66 57 57 57 55 56 59 59 62 61 59 59 61 62 65 67 65 62 64 65 63 61 59 60 64 64 64 66 69 71 72 73 73 73 73 74 74 75 75 75 76 76 75 75 75 76 76 76 76 76 76 76 76 76 76 76 75 75 75 75 75 74 74 75 75 76 76 76 76 76 75 76 75 75 75 75 75 74 74 75 74 74 75 75 74 74 75 75 75 74
69 69 69 70 69 67 66 66 54 56 53 51 55 58 62 59 58 60 63 63 64 66 66 65 63 65 63 64 59 60 57 65 65 66 67 70 68 71 73 73 74 74 74 75 75 75 75 76 77 76 75 76 76 76 76 76 76 76 76 76 76 76 76 75 75 75 75 75 74 74 74 75 75 75 75 76 75 75 75 74 75 75 75 75 75 75 76 75 75 74 74 75 75 75 74 75 75
69 68 68 68 64 67 61 61 58 56 53 54 55 60 60 59 60 61 63 63 63 65 63 62 63 65 64 60 61 63 63 63 66 66 66 68 68 72 73 73 74 74 74 75 75 75 75 75 77 76 75 76 76 76 76 77 77 76 76 76 76 76 76 76 75 75 75 75 75 75 75 75 74 74 75 75 75 75 75 75 75 75 75 75 75 75 75 75 75 74 74 75 75 74 74 75 76
70 71 69 67 63 60 61 60 58 58 53 55 54 60 61 61 61 62 65 65 64 64 63 63 61 63 66 62 62 60 61 66 66 68 67 70 72 72 73 74 74 74 74 74 75 75 75 76 76 76 76 75 76 76 76 76 76 76 76 76 75 75 75 75 75 74 75 75 75 75 75 74 75 74 74 74 75 75 75 75 75 75 75 75 75 75 75 75 75 75 75 75 75 75 75 75 75
70 70 73 70 64 67 62 58 56 56 59 61 58 59 61 62 62 64 64 66 65 64 65 63 60 61 61 62 64 63 64 62 66 67 69 70 72 72 73 74 73 73 74 74 75 75 75 76 77 76 76 76 76 76 76 76 75 76 75 75 75 75 75 75 75 75 75 75 75 74 74 74 75 74 74 74 75 75 74 75 75 75 74 74 75 75 75 75 75 75 75 75 75 75 75 75 75
66 68 68 68 65 66 58 57 56 57 60 62 61 61 62 62 63 64 63 62 64 66 67 62 61 61 60 62 64 66 67 67 66 68 70 71 72 73 73 73 73 73 74 74 75 75 75 76 77 76 76 76 76 76 76 75 75 75 75 75 75 75 75 75 75 75 75 75 75 75 75 74 74 74 74 74 74 74 74 74 74 75 75 74 75 75 75 75 74 75 75 75 75 75 75 75 75
72 65 66 61 59 61 57 57 57 59 60 63 63 62 63 63 64 63 62 62 61 61 62 61 62 62 62 64 62 66 66 68 69 70 71 71 72 72 72 72 72 73 73 74 75 75 77 77 76 76 76 76 76 76 76 75 74 75 75 74 75 75 75 75 74 74 74 74 74 74 74 74 74 73 73 74 74 74 74 74 74 74 74 74 74 74 74 74 75 75 75 75 75 75 75 75 75
67 67 69 62 57 60 57 56 58 62 61 63 63 65 65 65 64 63 62 65 62 61 61 61 61 58 62 63 63 66 68 69 70 71 71 71 71 71 71 72 72 72 73 74 75 76 76 77 76 76 76 76 76 76 75 75 75 75 75 75 75 74 75 74 74 74 74 74 74 74 73 73 74 73 73 73 74 74 74 74 74 74 74 74 74 75 74 75 74 75 74 74 75 74 74 74 74
65 65 61 60 61 55 55 56 56 60 60 62 63 64 65 65 64 65 64 62 61 62 62 63 62 61 63 62 64 65 68 69 70 70 71 71 71 71 71 72 72 72 73 74 75 76 76 77 76 76 76 76 75 75 75 75 75 75 75 75 75 74 74 74 74 74 74 74 74 74 74 74 74 73 73 73 74 75 74 74 74 74 74 74 75 74 74 74 73 74 74 75 75 74 74 75 74
61 67 67 58 54 54 54 54 59 61 61 63 64 64 65 66 65 64 64 61 63 62 62 63 62 62 62 63 64 67 69 69 69 69 70 70 70 71 71 72 72 72 73 74 75 76 76 76 77 76 77 76 76 76 75 76 75 74 75 75 75 74 74 74 74 74 74 74 75 75 75 74 74 74 73 73 74 74 74 74 75 75 75 74 75 75 74 74 74 74 74 75 74 74 74 74 74
60 62 62 55 54 53 55 56 58 60 62 62 62 65 66 65 65 63 62 61 62 62 61 62 61 63 62 63 64 67 68 68 69 69 70 70 71 71 71 71 72 72 73 74 75 75 75 76 76 76 76 76 76 76 75 76 76 75 75 75 75 74 74 74 74 74 74 74 74 74 74 74 74 74 73 73 73 73 74 74 74 74 74 74 75 75 75 75 75 75 74 74 73 73 73 73 74
61 63 59 57 57 57 57 57 58 59 60 61 63 64 68 65 64 65 62 62 62 61 61 64 63 62 60 62 66 67 67 68 69 69 69 70 70 70 70 71 72 73 73 74 75 75 75 75 76 75 75 76 76 75 75 75 75 75 75 75 75 74 74 74 74 74 75 75 74 74 74 74 73 74 74 73 73 73 74 74 74 75 74 75 75 74 75 74 75 74 74 74 73 73 72 73 73
62 62 59 55 58 58 57 58 59 58 58 62 64 65 66 65 67 66 62 61 61 61 63 63 64 63 63 64 65 65 66 68 68 69 69 69 69 70 70 71 72 72 73 74 75 75 75 75 75 75 75 75 75 75 75 75 75 75 74 75 75 74 75 74 74 74 75 75 74 74 74 74 74 74 73 73 74 75 75 75 75 75 75 74 74 75 74 74 74 74 75 75 74 73 73 74 74
62 66 62 56 57 58 60 57 59 58 58 63 63 65 65 67 67 67 65 61 62 64 64 64 63 60 60 60 62 65 66 67 68 69 69 69 69 69 70 70 71 72 73 74 75 75 75 75 75 75 75 75 75 74 74 75 75 74 75 75 75 75 74 75 74 74 74 74 74 74 74 74 74 74 74 74 74 75 75 75 75 75 75 73 74 74 74 74 74 74 75 75 74 74 73 74 74
65 65 61 55 55 55 58 59 60 59 59 63 64 66 65 66 68 66 66 69 63 64 64 62 63 64 61 62 63 65 66 68 68 68 68 68 68 69 69 70 71 72 73 74 74 75 75 74 75 75 74 74 75 75 74 75 74 74 74 75 75 75 74 74 75 75 75 75 74 75 74 76 75 74 74 74 74 75 75 74 74 75 74 74 74 73 74 74 74 74 75 74 74 74 73 74 74
68 64 56 55 53 56 58 59 60 56 62 63 66 65 63 64 66 68 70 69 62 63 65 63 62 63 62 63 65 66 67 69 69 68 67 67 67 67 69 70 71 72 73 74 74 74 74 74 74 74 74 74 74 74 74 74 74 74 74 74 74 75 75 75 75 75 75 75 75 75 76 74 74 74 74 73 75 74 74 74 74 75 74 74 74 74 74 74 74 75 74 75 74 74 74 74 74
64 58 56 54 55 56 60 60 62 62 61 63 65 65 64 63 65 67 69 65 65 64 63 64 64 63 64 65 66 67 68 68 68 67 66 66 66 67 68 69 70 71 72 73 73 73 74 74 74 74 74 74 74 74 74 74 75 75 74 75 76 75 75 75 76 75 76 75 76 75 75 75 74 75 75 75 76 75 74 74 74 75 75 74 74 74 74 75 75 74 74 74 74 73 74 74 74
61 58 56 54 57 58 63 64 61 61 62 64 65 65 65 63 66 67 63 62 62 61 62 63 63 64 65 65 66 67 67 67 67 66 65 65 66 66 67 68 68 70 71 72 72 73 74 74 74 74 74 74 74 74 75 75 74 74 74 75 75 75 75 76 75 75 74 74 75 74 75 74 74 74 74 75 76 74 74 74 74 74 74 74 74 74 75 75 75 75 74 74 74 74 73 72 73
64 58 54 56 60 62 65 64 63 65 65 64 65 66 65 65 67 68 62 61 61 60 61 62 62 63 64 65 66 66 66 67 67 66 65 65 65 66 66 67 67 69 70 71 71 73 73 74 74 74 74 74 73 74 74 74 73 74 74 74 74 74 75 75 74 74 74 74 74 74 74 74 74 74 75 76 76 74 74 74 75 75 75 75 75 76 75 75 75 74 73 76 76 75 72 72 72
62 59 57 58 63 61 64 67 66 66 66 65 64 66 65 67 68 66 62 60 60 61 62 62 62 63 64 65 65 66 66 66 66 66 65 65 66 66 66 66 67 68 69 70 72 73 73 73 74 74 74 74 73 74 73 73 73 73 74 74 74 74 74 74 74 74 74 74 74 74 74 74 73 73 73 73 73 73 73 73 74 74 74 75 76 73 73 74 73 72 73 74 73 74 73 73 72
62 58 61 61 62 61 65 65 66 66 66 65 65 64 64 68 67 65 63 58 58 60 62 63 63 63 64 64 65 66 66 66 66 66 65 65 65 65 65 65 67 67 69 69 71 72 72 73 74 74 74 73 74 74 73 74 74 73 73 73 74 73 74 74 74 74 74 74 74 74 74 73 73 73 73 73 73 73 73 73 73 73 74 74 75 72 72 72 71 72 72 72 72 73 73 73 73
57 59 59 61 61 63 65 65 66 66 65 64 64 66 66 65 64 65 67 63 63 64 63 64 64 64 64 65 65 66 66 66 66 65 65 65 65 64 64 65 65 66 68 69 71 71 72 73 73 73 73 73 74 74 74 74 73 73 73 74 73 73 73 73 74 74 74 74 74 74 73 72 72 72 72 72 73 73 73 73 73 73 73 74 74 72 72 73 72 71 71 72 72 73 73 73 72
58 56 59 61 63 63 64 64 66 66 66 64 67 67 65 63 62 66 65 67 68 66 64 64 64 64 65 65 65 65 66 65 65 65 65 65 64 64 64 64 65 67 68 69 70 70 72 72 73 73 73 73 73 74 74 73 73 73 74 75 74 75 74 73 73 74 74 74 74 75 74 72 72 72 72 72 72 73 73 73 73 73 73 73 74 73 72 72 72 72 73 73 73 73 73 73 72
57 58 60 59 60 64 64 65 66 66 66 68 67 64 64 64 64 65 63 66 68 63 63 64 64 64 65 65 65 65 65 65 65 65 65 65 64 65 65 65 66 68 68 68 69 70 71 72 73 72 73 73 73 74 74 73 73 73 74 74 73 76 74 74 74 74 74 74 74 75 74 72 72 72 72 72 71 72 72 72 73 73 73 72 72 73 73 72 72 72 73 73 73 73 73 73 73
57 58 62 58 58 63 65 66 65 65 67 66 64 63 65 66 66 64 67 68 66 63 63 63 63 64 64 64 65 65 65 65 65 65 65 65 65 65 65 66 68 68 68 69 69 70 71 72 72 72 73 73 73 74 74 73 73 74 74 74 73 76 74 75 75 74 73 73 73 73 74 73 72 72 72 71 71 71 72 72 72 73 73 73 73 72 72 72 72 72 72 73 73 73 73 73 74
58 57 58 57 57 64 65 64 65 66 66 66 63 63 65 66 65 61 66 68 66 62 62 63 63 63 63 64 64 65 64 64 64 65 64 65 65 65 66 67 68 68 69 69 69 70 71 71 71 72 73 74 74 74 74 73 74 73 74 74 74 74 75 75 75 74 73 73 73 73 74 74 72 72 72 71 71 71 71 71 71 72 72 73 73 73 74 73 73 73 73 73 73 73 73 73 73
55 57 57 59 59 64 64 66 66 65 65 67 65 63 64 65 65 63 66 68 66 60 60 61 62 62 62 63 64 64 64 64 64 64 63 65 65 66 66 67 68 69 69 69 70 70 71 71 71 72 73 74 74 74 74 73 73 74 74 73 74 74 75 74 73 73 74 72 73 72 72 73 73 72 72 71 71 71 71 71 72 72 72 72 73 72 72 73 73 73 73 73 73 73 73 73 72
56 57 58 60 62 62 64 64 64 64 64 66 64 62 61 62 61 65 66 68 68 59 59 60 61 61 61 62 63 63 63 64 64 64 64 65 66 66 66 68 68 69 69 69 70 71 71 71 71 72 73 74 73 73 74 73 73 74 73 73 74 75 74 74 73 73 73 73 72 72 72 73 73 72 72 73 74 71 71 71 71 73 72 72 72 73 73 72 72 72 72 74 74 74 73 71 70
57 57 59 59 60 60 62 64 65 63 65 65 63 55 58 61 64 66 66 68 65 62 58 59 60 60 61 61 61 62 63 63 63 63 64 66 66 66 66 67 68 69 69 70 69 70 71 71 72 72 73 74 73 73 73 73 73 73 73 73 75 74 74 73 73 72 73 73 72 72 72 73 72 72 72 72 72 71 71 71 71 71 72 72 72 73 72 72 72 73 73 72 74 72 70 71 67
53 56 57 56 57 57 63 63 64 63 64 65 65 54 57 61 64 67 67 67 62 59 57 58 59 59 60 60 60 61 61 62 62 63 64 66 66 66 66 67 68 68 70 69 69 69 71 71 71 71 73 73 74 73 73 72 72 73 72 73 74 73 73 73 72 72 72 72 72 72 72 73 72 72 72 72 71 71 71 71 71 71 72 73 72 72 72 72 73 73 74 71 70 69 70 72 70
53 52 50 54 55 55 61 64 65 61 64 63 62 54 56 61 63 66 67 67 63 59 57 58 58 59 59 60 60 60 60 60 62 63 64 65 66 66 66 67 68 68 68 68 68 70 70 71 72 71 73 72 73 73 72 72 72 73 72 74 73 72 73 72 72 71 72 72 72 72 72 73 72 72 72 72 71 71 71 70 70 71 72 73 72 72 73 74 73 73 74 73 70 68 71 69 70
31 49 46 52 53 55 58 61 64 64 64 64 60 54 58 60 64 66 67 66 63 60 58 58 59 60 59 59 60 60 59 59 61 63 64 65 66 66 66 67 67 68 68 68 68 69 70 70 72 71 72 72 72 72 71 71 71 73 72 73 72 72 71 71 72 71 71 71 72 71 72 73 72 72 72 72 71 71 71 71 71 71 73 73 72 72 73 75 73 74 73 75 70 68 70 69 68
26 30 49 51 52 56 55 59 62 63 63 61 62 59 58 61 64 65 66 66 63 59 60 59 59 59 59 59 59 59 59 58 60 63 64 65 65 66 67 69 67 67 67 67 68 69 69 70 71 71 71 71 71 72 71 70 71 72 72 73 73 71 70 70 72 71 71 71 71 71 72 73 73 72 72 72 71 71 71 71 71 72 73 73 73 74 75 74 74 74 72 73 74 71 69 68 67
25 33 47 52 55 56 54 55 59 61 62 61 60 60 59 63 64 64 65 66 63 60 61 60 58 59 59 59 59 58 59 58 59 62 64 64 65 66 66 67 66 66 66 66 68 69 69 70 71 72 71 71 71 72 71 71 71 71 71 72 71 70 70 70 72 71 71 72 71 71 72 73 73 72 73 73 71 72 72 71 71 73 74 74 73 74 74 74 74 72 72 72 73 73 71 69 69
23 28 37 51 53 54 53 55 59 60 61 60 59 58 60 62 62 63 65 66 63 62 65 65 61 59 59 59 59 58 58 58 58 62 63 64 64 65 66 66 65 65 65 66 68 69 69 70 71 72 71 71 71 72 71 70 70 70 70 70 70 71 69 71 72 71 72 71 71 71 72 72 73 73 72 72 72 72 72 71 72 73 74 74 74 73 72 72 71 70 71 73 73 72 74 74 71
21 21 26 51 52 52 53 54 59 61 61 60 59 59 60 61 62 63 64 65 64 63 63 63 63 58 59 59 58 57 57 57 57 61 62 63 64 65 65 64 64 65 65 66 67 68 69 70 70 70 70 71 71 71 70 69 68 69 69 69 69 69 69 70 71 72 72 72 71 71 72 73 73 73 73 72 72 73 73 72 73 74 74 74 73 72 72 74 74 73 74 74 75 70 70 72 69
20 21 19 18 42 36 50 53 59 60 59 58 59 59 59 60 62 62 64 64 63 62 63 63 62 58 59 58 58 57 57 56 57 60 61 62 63 64 64 63 65 63 64 66 67 68 69 70 70 70 70 71 71 70 70 69 68 68 68 69 68 68 70 71 71 72 73 73 72 72 73 73 73 73 74 72 73 72 73 73 74 74 74 74 73 74 75 78 74 73 72 69 71 71 69 72 69
19 17 18 16 15 27 55 56 59 60 58 56 58 58 59 60 62 62 63 63 63 63 63 64 64 58 58 58 57 57 56 54 56 59 60 61 62 63 63 62 63 63 64 65 67 68 69 69 70 70 70 70 70 70 69 68 69 70 69 69 68 69 70 71 71 73 74 73 73 73 73 73 73 74 75 74 73 74 74 74 74 74 74 75 74 72 73 73 73 73 72 71 71 71 73 73 68
14 14 16 14 25 51 51 58 59 59 57 57 58 59 58 61 62 63 65 65 64 66 64 65 67 60 58 58 57 56 54 54 56 58 59 61 61 61 62 61 62 63 64 65 66 67 68 70 69 70 70 70 70 70 70 69 70 70 70 70 69 69 69 72 73 74 74 74 74 74 74 74 74 75 76 75 75 75 75 74 74 74 74 75 73 71 72 72 72 72 73 74 70 68 69 68 73
14 13 12 12 32 50 55 56 60 58 57 56 58 57 56 60 60 61 63 63 64 65 65 64 66 67 68 68 64 58 54 54 55 57 58 60 60 60 61 61 62 63 63 64 66 67 68 69 69 70 70 70 70 71 70 70 72 71 73 72 72 72 73 73 73 73 74 75 75 74 74 75 75 76 76 76 76 76 75 74 74 74 75 75 74 72 72 72 73 73 73 73 71 68 67 69 72
10 9 10 9 36 50 56 56 55 56 54 57 55 48 50 58 58 61 62 62 62 64 63 62 64 65 67 66 65 66 58 54 55 56 58 59 59 60 60 61 62 63 63 64 66 67 68 69 70 70 70 70 70 71 70 71 72 70 70 70 69 69 70 71 71 72 73 74 74 75 75 76 76 76 76 76 77 76 75 75 74 75 75 75 75 73 73 73 73 72 72 73 72 72 68 68 68
12 11 9 10 37 53 56 55 53 50 50 54 54 46 45 55 58 59 61 61 61 63 63 63 63 64 65 65 65 65 61 59 55 56 57 58 59 59 59 61 62 62 63 64 66 67 68 69 70 70 70 70 71 71 71 72 71 70 70 69 69 69 70 71 72 73 73 74 74 74 75 75 76 76 75 75 76 76 75 75 75 74 75 74 76 74 73 73 74 73 74 72 72 75 70 67 69
11 12 10 9 37 51 55 54 52 49 53 55 54 49 47 48 54 59 60 60 61 61 62 63 63 64 63 64 64 65 65 61 59 55 57 58 58 59 59 61 62 62 63 64 66 67 68 69 70 70 70 71 71 71 71 71 70 70 70 70 70 69 69 69 71 72 73 74 74 74 74 75 75 75 75 75 76 76 75 75 75 75 74 75 76 75 73 73 73 74 75 74 75 73 70 68 69
13 15 10 10 37 50 53 53 51 47 50 49 53 50 45 46 50 59 60 59 59 60 61 63 63 63 63 64 64 64 65 66 64 59 55 57 58 58 59 61 62 62 62 64 65 67 68 69 70 70 70 70 70 72 71 71 72 71 70 70 70 70 70 70 72 73 73 74 73 73 74 74 74 74 75 75 75 76 77 75 75 75 74 74 76 75 74 74 73 73 74 73 73 73 72 72 71
15 15 19 16 17 44 51 51 50 47 46 45 50 50 43 44 52 58 59 58 59 59 61 63 63 63 62 63 65 64 65 66 65 64 56 56 57 58 59 61 62 62 62 64 65 67 68 69 70 70 70 70 70 71 72 71 71 72 70 70 70 70 71 71 72 72 72 73 73 73 73 73 73 74 74 75 75 75 76 76 75 75 75 75 76 75 74 74 74 74 73 73 73 74 74 73 71
18 15 13 15 26 38 49 48 45 44 42 43 48 50 45 40 50 56 56 57 58 59 61 63 63 63 63 64 64 65 65 66 66 65 64 56 57 59 59 61 61 62 62 64 65 66 68 69 69 69 70 70 70 70 72 71 71 71 70 70 70 70 71 71 71 71 71 72 72 72 72 73 73 73 74 74 75 75 75 76 76 75 74 75 75 74 73 74 74 74 74 74 74 73 73 73 73
15 16 20 23 31 38 43 42 44 41 39 42 46 49 47 41 43 56 58 58 59 59 60 61 62 63 63 63 63 64 64 66 67 66 66 62 57 59 59 60 61 61 61 63 65 66 68 69 69 69 70 70 70 70 72 72 72 71 71 71 70 70 71 71 70 70 71 71 71 72 72 72 72 73 73 74 74 75 75 76 77 75 75 74 74 74 73 74 74 74 74 74 73 74 74 74 73
15 23 25 20 27 34 30 34 40 39 39 40 43 48 45 44 44 50 54 58 59 60 60 61 62 63 63 62 61 62 63 66 66 66 65 64 58 58 59 60 61 62 62 63 65 66 68 68 69 69 69 70 70 70 71 72 72 71 71 71 71 71 71 71 71 70 71 71 71 72 72 72 71 72 73 73 74 75 75 75 75 74 74 75 74 73 74 74 74 74 74 74 73 73 73 73 72
16 16 22 22 28 28 24 31 33 36 38 35 39 47 44 46 49 54 55 56 58 59 60 62 63 63 63 63 62 61 62 65 66 66 65 65 60 58 59 60 61 61 61 63 65 66 67 68 68 68 69 70 70 70 71 72 72 72 72 71 71 72 71 71 71 70 71 71 71 72 72 72 72 72 73 73 74 74 75 75 75 75 74 74 74 73 74 74 74 74 74 74 74 73 73 74 73
16 19 20 22 30 27 24 27 24 32 35 33 45 43 42 42 45 54 55 56 58 59 60 62 63 63 63 63 63 63 62 63 66 66 65 65 65 61 59 60 61 61 61 62 65 66 67 68 68 68 69 69 70 70 71 71 72 72 72 72 71 72 71 71 71 71 71 71 71 72 72 72 72 73 73 73 75 74 75 75 75 75 74 74 75 74 75 74 74 74 75 74 73 74 74 73 73
22 24 25 23 25 34 29 32 26 29 35 41 43 43 48 48 53 55 57 57 59 60 60 62 62 63 63 64 64 64 63 63 65 66 65 65 65 66 60 60 61 61 62 62 64 66 66 67 68 68 68 69 69 70 71 71 71 72 72 72 71 72 73 71 72 72 72 71 71 72 72 72 72 73 73 74 74 74 74 75 75 75 74 75 75 74 74 74 74 74 74 74 73 76 74 73 73
22 21 20 22 25 30 35 39 38 33 39 40 46 47 49 52 52 55 57 58 59 60 61 62 62 63 63 63 63 64 64 64 65 66 65 65 65 66 65 60 61 61 61 62 65 66 66 66 68 68 68 69 69 69 70 71 71 72 72 72 72 72 72 71 71 72 72 71 71 71 72 72 73 73 73 74 74 74 74 74 75 75 74 75 75 75 74 74 74 74 74 73 73 73 73 73 73
23 19 20 28 32 32 29 24 31 28 27 37 46 46 46 44 44 54 55 56 57 59 60 61 62 62 62 63 63 63 64 64 65 66 66 65 65 67 68 67 63 64 66 65 66 66 66 66 67 68 68 69 69 69 70 71 71 71 71 72 72 72 72 71 71 72 72 72 72 72 72 72 73 73 73 73 73 73 73 76 74 74 74 75 75 75 75 74 74 73 74 73 73 72 72 73 74
22 20 26 18 24 20 29 28 24 25 36 41 45 46 46 46 46 53 54 56 57 59 61 61 62 62 63 63 64 64 64 65 66 67 67 68 68 68 68 68 69 69 70 69 67 67 67 67 67 67 67 69 69 68 69 71 71 71 71 71 71 72 72 71 71 72 72 71 72 72 72 72 72 73 74 74 73 73 73 74 74 74 74 75 75 75 75 75 74 73 73 73 73 73 72 72 72
26 25 22 30 27 29 26 25 28 27 35 42 45 47 44 48 50 55 55 57 58 59 60 61 62 63 63 64 65 65 66 67 66 66 67 67 68 69 69 68 68 69 70 71 71 68 68 67 68 68 68 69 70 69 69 70 71 71 71 71 71 72 72 72 71 71 71 71 71 72 72 72 72 72 73 73 73 73 73 73 74 74 74 75 75 75 75 75 74 74 74 74 73 73 73 73 73
22 21 23 23 29 29 24 30 25 36 40 42 44 43 45 48 57 56 57 58 59 60 60 61 61 62 63 63 64 64 65 66 66 66 66 67 68 69 70 69 69 69 70 71 72 71 70 70 70 70 70 69 70 70 69 70 71 71 71 71 71 71 72 72 71 71 71 71 71 72 72 72 72 72 72 72 72 73 73 73 73 74 74 75 75 75 75 75 75 74 74 74 73 73 73 73 73
21 21 22 22 21 21 20 22 28 41 42 40 42 41 45 53 57 57 58 59 59 60 60 61 61 61 61 61 62 63 63 66 68 67 68 69 68 69 69 70 69 69 69 70 71 71 71 71 71 70 70 70 70 70 70 71 71 71 71 71 71 71 71 72 71 71 71 71 71 71 71 71 71 71 72 72 71 72 73 73 73 73 74 74 75 75 75 75 75 74 74 74 74 73 73 73 72